N5CSU Weather Reports


time (UTC)temp
F
wind
direction
speed
knots
gust
knots
rain 1hr
in
rain 24hr
in
rain mn
in
humidity
%
barometer
mb
20260904222008 98 194 0.0 0.0 0.00 0.00 0.00 47 1011.6
20260904221502 98 211 0.0 0.0 0.00 0.00 0.00 47 1011.4
20260904220957 98 194 0.0 0.0 0.00 0.00 0.00 46 1011.4
20260904220456 97 180 0.9 0.9 0.00 0.00 0.00 46 1011.5
20260904215952 98 237 0.9 1.7 0.00 0.00 0.00 45 1011.4
20260904215447 98 213 0.0 0.0 0.00 0.00 0.00 45 1011.5
20260904214943 97 160 0.9 0.9 0.00 0.00 0.00 47 1011.6
20260904214438 97 177 1.7 1.7 0.00 0.00 0.00 47 1011.7
20260904213933 97 201 0.0 0.0 0.00 0.00 0.00 45 1011.8
20260904213426 97 211 0.0 0.0 0.00 0.00 0.00 46 1011.7
20260904212923 97 200 0.0 0.0 0.00 0.00 0.00 45 1011.6
20260904212422 98 202 0.0 0.9 0.00 0.00 0.00 45 1011.9
20260904211918 98 212 0.9 0.9 0.00 0.00 0.00 44 1012.0
20260904211413 97 182 0.0 0.0 0.00 0.00 0.00 46 1011.8
20260904210908 98 139 0.0 0.9 0.00 0.00 0.00 46 1012.0
20260904210407 98 218 0.9 0.9 0.00 0.00 0.00 44 1012.0
20260904205903 99 205 0.0 0.0 0.00 0.00 0.00 44 1012.1
20260904205358 99 231 0.0 0.0 0.00 0.00 0.00 43 1012.1
20260904204855 99 214 0.0 0.0 0.00 0.00 0.00 44 1012.0
20260904204351 98 199 0.0 0.0 0.00 0.00 0.00 45 1012.2
20260904203847 98 184 0.0 0.0 0.00 0.00 0.00 45 1012.2
20260904203343 98 156 0.0 0.0 0.00 0.00 0.00 45 1012.2
20260904202838 98 196 0.0 0.0 0.00 0.00 0.00 46 1012.5
20260904202335 97 204 0.0 0.0 0.00 0.00 0.00 46 1012.3
20260904201830 98 177 0.9 0.9 0.00 0.00 0.00 47 1012.6
20260904201325 97 211 0.9 0.9 0.00 0.00 0.00 46 1012.7
20260904200820 97 189 0.0 0.0 0.00 0.00 0.00 47 1012.6
20260904200318 96 181 0.9 0.9 0.00 0.00 0.00 48 1012.6
20260904195814 96 213 0.0 0.0 0.00 0.00 0.00 48 1013.0
20260904195312 97 195 0.0 0.9 0.00 0.00 0.00 48 1012.9
20260904194807 98 207 0.0 0.9 0.00 0.00 0.00 46 1013.1
20260904194306 98 206 0.0 0.0 0.00 0.00 0.00 45 1013.1
20260904193801 96 184 0.0 0.9 0.00 0.00 0.00 47 1013.2
20260904193257 97 206 0.9 0.9 0.00 0.00 0.00 47 1013.3
20260904192752 97 200 0.0 0.9 0.00 0.00 0.00 46 1013.3
20260904192247 98 194 1.7 1.7 0.00 0.00 0.00 45 1013.3
20260904191744 98 181 0.0 0.9 0.00 0.00 0.00 46 1013.4
20260904191240 97 195 0.9 0.9 0.00 0.00 0.00 46 1013.5
20260904190736 97 194 0.9 0.9 0.00 0.00 0.00 47 1013.4
20260904190232 98 201 0.0 0.0 0.00 0.00 0.00 47 1013.5
20260904185728 98 231 0.9 0.9 0.00 0.00 0.00 46 1013.6
20260904185222 97 199 0.0 0.0 0.00 0.00 0.00 48 1013.6
20260904184721 96 215 0.0 0.9 0.00 0.00 0.00 46 1013.8
20260904184217 97 208 0.9 0.9 0.00 0.00 0.00 47 1013.8
20260904183713 96 193 0.0 0.0 0.00 0.00 0.00 48 1013.7
20260904183213 96 237 0.9 1.7 0.00 0.00 0.00 47 1013.9
20260904182708 97 206 0.0 0.9 0.00 0.00 0.00 47 1013.9
20260904182203 96 227 0.0 0.0 0.00 0.00 0.00 47 1013.9
20260904181659 96 205 0.0 0.0 0.00 0.00 0.00 48 1014.3
20260904181158 96 182 0.9 0.9 0.00 0.00 0.00 49 1014.2
20260904180654 96 189 0.9 1.7 0.00 0.00 0.00 49 1014.2
20260904180149 96 216 0.0 0.0 0.00 0.00 0.00 47 1014.4
20260904175648 95 186 0.0 0.9 0.00 0.00 0.00 49 1014.6
20260904175147 96 183 0.9 0.9 0.00 0.00 0.00 48 1014.6
20260904174641 95 205 0.0 0.0 0.00 0.00 0.00 49 1014.6
20260904174137 95 197 0.9 0.9 0.00 0.00 0.00 50 1014.6
20260904173633 94 198 0.0 0.0 0.00 0.00 0.00 51 1014.5
20260904173123 94 193 0.0 0.0 0.00 0.00 0.00 52 1014.9
20260904172619 94 188 0.0 0.0 0.00 0.00 0.00 52 1014.8
20260904172118 94 222 0.0 0.0 0.00 0.00 0.00 52 1015.0
20260904171613 94 248 0.0 0.0 0.00 0.00 0.00 53 1014.9
20260904171108 94 183 0.9 1.7 0.00 0.00 0.00 52 1015.1
20260904170604 94 204 0.9 1.7 0.00 0.00 0.00 55 1015.1
20260904170054 94 20 0.0 0.9 0.00 0.00 0.00 56 1015.0
20260904165552 93 194 0.0 0.9 0.00 0.00 0.00 56 1015.0
20260904165047 93 210 0.0 0.0 0.00 0.00 0.00 55 1015.1
20260904164542 94 195 0.0 0.0 0.00 0.00 0.00 57 1014.9
20260904164038 94 192 0.9 1.7 0.00 0.00 0.00 58 1015.3
20260904163537 93 206 0.0 0.0 0.00 0.00 0.00 58 1015.3
20260904163033 93 209 0.0 0.0 0.00 0.00 0.00 60 1015.4
20260904162527 93 162 0.0 0.9 0.00 0.00 0.00 60 1015.2
20260904162022 92 185 0.0 0.0 0.00 0.00 0.00 60 1015.0
20260904161517 92 200 0.0 0.0 0.00 0.00 0.00 60 1015.0
20260904161012 91 192 0.0 0.0 0.00 0.00 0.00 62 1015.0
20260904160507 91 38 0.0 0.9 0.00 0.00 0.00 63 1015.1
20260904160003 91 223 0.9 0.9 0.00 0.00 0.00 63 1015.3
20260904155502 90 204 0.0 0.0 0.00 0.00 0.00 66 1015.3
20260904155001 89 207 0.0 0.0 0.00 0.00 0.00 69 1015.3
20260904154455 88 197 0.9 0.9 0.00 0.00 0.00 69 1015.3
20260904153950 88 204 0.0 0.0 0.00 0.00 0.00 71 1015.0
20260904153445 87 202 0.0 0.0 0.00 0.00 0.00 72 1015.2
20260904152942 87 246 0.0 0.9 0.00 0.00 0.00 72 1015.2
20260904152437 87 205 0.0 0.0 0.00 0.00 0.00 73 1015.2
20260904151937 86 212 0.0 0.0 0.00 0.00 0.00 74 1015.1
20260904151432 86 182 0.0 0.0 0.00 0.00 0.00 76 1015.0
20260904150927 86 193 0.0 0.9 0.00 0.00 0.00 76 1014.9
20260904150422 85 233 0.9 0.9 0.00 0.00 0.00 77 1015.2
20260904145920 85 190 0.0 0.0 0.00 0.00 0.00 78 1015.0
20260904145416 85 208 0.0 0.0 0.00 0.00 0.00 79 1015.1
20260904144911 84 160 0.0 0.0 0.00 0.00 0.00 80 1015.0
20260904144401 84 184 0.9 1.7 0.00 0.00 0.00 80 1015.2
20260904143856 84 188 0.0 0.0 0.00 0.00 0.00 82 1015.1
20260904143354 83 217 0.0 0.0 0.00 0.00 0.00 82 1015.3
20260904142850 84 210 0.0 0.0 0.00 0.00 0.00 82 1015.3
20260904142345 83 204 0.0 0.0 0.00 0.00 0.00 83 1015.2
20260904141844 83 212 0.0 0.0 0.00 0.00 0.00 84 1015.1
20260904141340 82 211 0.0 0.0 0.00 0.00 0.00 85 1015.2
20260904140836 82 190 0.0 0.0 0.00 0.00 0.00 86 1015.3
20260904140331 82 213 0.0 0.0 0.00 0.00 0.00 86 1015.1
20260904135830 82 219 0.0 0.0 0.00 0.00 0.00 86 1015.1
20260904135325 81 184 0.0 0.9 0.00 0.00 0.00 87 1015.1
20260904134816 81 189 0.0 0.0 0.00 0.00 0.00 88 1015.1
20260904134315 80 183 0.0 0.0 0.00 0.00 0.00 88 1014.9
20260904133810 80 183 0.0 0.0 0.00 0.00 0.00 89 1014.9
20260904133306 80 204 0.0 0.0 0.00 0.00 0.00 89 1014.8
20260904132805 80 189 0.0 0.0 0.00 0.00 0.00 89 1014.8
20260904132301 79 138 0.0 0.0 0.00 0.00 0.00 90 1014.8
20260904131800 79 200 0.0 0.0 0.00 0.00 0.00 90 1014.5
20260904131256 78 183 0.0 0.0 0.00 0.00 0.00 91 1014.8
20260904130755 78 204 0.0 0.0 0.00 0.00 0.00 91 1014.7
20260904130255 78 184 0.0 0.0 0.00 0.00 0.00 91 1014.7
20260904125751 78 137 0.0 0.0 0.00 0.00 0.00 91 1014.7
20260904125247 78 193 0.0 0.0 0.00 0.00 0.00 91 1014.5
20260904124741 78 199 0.0 0.0 0.00 0.00 0.00 91 1014.5
20260904124238 77 199 0.0 0.0 0.00 0.00 0.00 91 1014.6
20260904123737 77 199 0.0 0.0 0.00 0.00 0.00 91 1014.6
20260904123232 77 192 0.0 0.0 0.00 0.00 0.00 91 1014.5
20260904122728 77 202 0.0 0.0 0.00 0.00 0.00 91 1014.4
20260904122222 77 187 0.0 0.0 0.00 0.00 0.00 91 1014.5
20260904121718 77 186 0.0 0.0 0.00 0.00 0.00 91 1014.2
20260904121214 77 202 0.0 0.0 0.00 0.00 0.00 91 1014.4
20260904120710 77 202 0.0 0.0 0.00 0.00 0.00 92 1014.3
20260904120206 77 202 0.0 0.0 0.00 0.00 0.00 91 1014.4
20260904115701 77 202 0.0 0.0 0.00 0.00 0.00 91 1014.1
20260904115201 77 202 0.0 0.0 0.00 0.00 0.00 91 1014.4
20260904114655 77 202 0.0 0.0 0.00 0.00 0.00 91 1014.2
20260904114149 77 209 0.0 0.0 0.00 0.00 0.00 90 1014.2
20260904113644 77 209 0.0 0.0 0.00 0.00 0.00 90 1014.1
20260904113143 77 209 0.0 0.0 0.00 0.00 0.00 90 1014.2
20260904112639 77 209 0.0 0.0 0.00 0.00 0.00 90 1013.9
20260904112135 77 212 0.0 0.0 0.00 0.00 0.00 90 1014.0
20260904111630 77 206 0.0 0.0 0.00 0.00 0.00 90 1013.8
20260904111126 77 199 0.0 0.0 0.00 0.00 0.00 89 1014.0
20260904110620 77 198 0.0 0.0 0.00 0.00 0.00 89 1014.0
20260904110120 77 201 0.0 0.0 0.00 0.00 0.00 89 1013.9
20260904105614 77 201 0.0 0.0 0.00 0.00 0.00 88 1013.9
20260904105109 77 201 0.0 0.0 0.00 0.00 0.00 88 1013.9
20260904104605 77 201 0.0 0.0 0.00 0.00 0.00 88 1014.1
20260904104100 77 201 0.0 0.0 0.00 0.00 0.00 88 1014.0
20260904103555 77 204 0.0 0.0 0.00 0.00 0.00 87 1013.7
20260904103052 77 204 0.0 0.0 0.00 0.00 0.00 88 1013.7
20260904102548 78 204 0.0 0.0 0.00 0.00 0.00 88 1013.8
20260904102042 78 204 0.0 0.0 0.00 0.00 0.00 88 1013.8
20260904101539 78 201 0.0 0.0 0.00 0.00 0.00 88 1013.7
20260904101034 78 194 0.0 0.0 0.00 0.00 0.00 87 1013.7
20260904100530 78 198 0.0 0.0 0.00 0.00 0.00 87 1013.7
20260904100025 78 203 0.0 0.0 0.00 0.00 0.00 87 1013.6
20260904095520 78 203 0.0 0.0 0.00 0.00 0.00 87 1013.5
20260904095015 78 206 0.0 0.0 0.00 0.00 0.00 87 1013.6
20260904094509 78 208 0.0 0.0 0.00 0.00 0.00 87 1013.4
20260904094005 78 207 0.0 0.0 0.00 0.00 0.00 86 1013.6
20260904093502 78 209 0.0 0.0 0.00 0.00 0.00 86 1013.4
20260904092956 78 209 0.0 0.0 0.00 0.00 0.00 86 1013.4
20260904092453 78 212 0.0 0.0 0.00 0.00 0.00 86 1013.8
20260904091948 78 208 0.0 0.0 0.00 0.00 0.00 86 1013.6
20260904091444 78 189 0.0 0.0 0.00 0.00 0.00 85 1013.6
20260904090938 78 209 0.0 0.0 0.00 0.00 0.00 85 1013.8
20260904090434 78 208 0.0 0.0 0.00 0.00 0.00 85 1013.7
20260904085929 78 187 0.0 0.0 0.00 0.00 0.00 85 1013.7
20260904085424 78 199 0.0 0.0 0.00 0.00 0.00 85 1013.6
20260904084919 78 201 0.0 0.0 0.00 0.00 0.00 85 1013.5
20260904084416 78 200 0.0 0.0 0.00 0.00 0.00 85 1013.5
20260904083910 78 201 0.0 0.0 0.00 0.00 0.00 85 1013.7
20260904083407 78 200 0.0 0.0 0.00 0.00 0.00 84 1013.6
20260904082857 78 196 0.0 0.0 0.00 0.00 0.00 84 1013.6
20260904082357 78 198 0.0 0.0 0.00 0.00 0.00 84 1013.6
20260904081852 78 194 0.0 0.0 0.00 0.00 0.00 84 1013.4
20260904081347 78 191 0.0 0.0 0.00 0.00 0.00 84 1013.4
20260904080843 78 189 0.0 0.0 0.00 0.00 0.00 84 1013.4
20260904080339 78 198 0.0 0.0 0.00 0.00 0.00 84 1013.4
20260904075835 78 198 0.0 0.0 0.00 0.00 0.00 83 1013.7
20260904075330 78 189 0.0 0.0 0.00 0.00 0.00 84 1013.4
20260904074829 78 202 0.0 0.0 0.00 0.00 0.00 83 1013.4
20260904074324 78 202 0.0 0.0 0.00 0.00 0.00 83 1013.3
20260904073819 78 194 0.0 0.0 0.00 0.00 0.00 83 1013.2
20260904073315 78 204 0.0 0.0 0.00 0.00 0.00 83 1013.4
20260904072811 79 200 0.0 0.0 0.00 0.00 0.00 83 1013.5
20260904072310 79 200 0.0 0.0 0.00 0.00 0.00 83 1013.5
20260904071805 79 202 0.0 0.0 0.00 0.00 0.00 83 1013.4
20260904071300 79 203 0.0 0.0 0.00 0.00 0.00 82 1013.3
20260904070755 79 204 0.0 0.0 0.00 0.00 0.00 82 1013.4
20260904070254 79 204 0.0 0.0 0.00 0.00 0.00 82 1013.3
20260904065749 79 209 0.0 0.0 0.00 0.00 0.00 82 1013.7
20260904065246 79 207 0.0 0.0 0.00 0.00 0.00 81 1013.8
20260904064745 79 189 0.0 0.0 0.00 0.00 0.00 81 1013.8
20260904064241 80 203 0.0 0.0 0.00 0.00 0.00 81 1013.8
20260904063737 80 202 0.0 0.0 0.00 0.00 0.00 80 1013.6
20260904063233 80 195 0.0 0.0 0.00 0.00 0.00 80 1013.9
20260904062728 80 202 0.0 0.0 0.00 0.00 0.00 80 1013.6
20260904062224 80 224 0.0 0.0 0.00 0.00 0.00 79 1013.6
20260904061720 80 201 0.0 0.0 0.00 0.00 0.00 79 1013.7
20260904061216 80 205 0.0 0.0 0.00 0.00 0.00 79 1013.6
20260904060713 80 197 0.0 0.0 0.00 0.00 0.00 78 1013.6
20260904060208 80 210 0.0 0.0 0.00 0.00 0.00 78 1013.5
20260904055703 80 235 0.0 0.0 0.00 0.00 0.00 78 1013.8
20260904055158 80 214 0.0 0.0 0.00 0.00 0.00 78 1013.7
20260904054654 80 195 0.0 0.0 0.00 0.00 0.00 77 1013.7
20260904054150 80 202 0.0 0.0 0.00 0.00 0.00 77 1013.8
20260904053650 81 203 0.0 0.0 0.00 0.00 0.00 77 1013.6
20260904053144 81 129 0.0 0.0 0.00 0.00 0.00 77 1013.6
20260904052641 81 358 0.0 0.0 0.00 0.00 0.00 77 1013.6
20260904052136 81 201 0.0 0.0 0.00 0.00 0.00 76 1013.6
20260904051633 81 191 0.0 0.0 0.00 0.00 0.00 76 1013.7
20260904051132 81 207 0.0 0.0 0.00 0.00 0.00 76 1013.6
20260904050628 81 195 0.0 0.0 0.00 0.00 0.00 75 1013.7
20260904050125 81 217 0.0 0.0 0.00 0.00 0.00 75 1013.6
20260904045624 81 199 0.0 0.0 0.00 0.00 0.00 75 1013.5
20260904045119 81 209 0.0 0.0 0.00 0.00 0.00 75 1013.7
20260904044614 81 184 0.0 0.0 0.00 0.00 0.00 75 1013.8
20260904044111 81 192 0.0 0.0 0.00 0.00 0.00 75 1013.5
20260904043607 81 193 0.0 0.0 0.00 0.00 0.00 76 1013.8
20260904043103 81 203 0.0 0.0 0.00 0.00 0.00 75 1013.7
20260904042559 81 179 0.9 0.9 0.00 0.00 0.00 75 1013.6
20260904042054 81 226 0.0 0.0 0.00 0.00 0.00 75 1013.9
20260904041550 81 203 0.0 0.0 0.00 0.00 0.00 74 1013.8
20260904041046 82 214 0.0 0.0 0.00 0.00 0.00 74 1013.7
20260904040546 82 180 0.0 0.9 0.00 0.00 0.00 74 1013.8
20260904040042 82 200 0.0 0.0 0.00 0.00 0.00 73 1013.7
20260904035537 82 198 0.0 0.0 0.00 0.00 0.00 73 1013.7
20260904035036 82 185 0.0 0.0 0.00 0.00 0.00 72 1013.6
20260904034531 82 196 0.0 0.0 0.00 0.00 0.00 72 1013.7
20260904034027 82 199 0.0 0.9 0.00 0.00 0.00 71 1013.9
20260904033523 82 190 0.0 0.0 0.00 0.00 0.00 70 1014.0
20260904033020 82 197 0.0 0.0 0.00 0.00 0.00 70 1013.8
20260904032514 82 84 0.9 1.7 0.00 0.00 0.00 69 1013.7
20260904032014 82 204 0.0 0.0 0.00 0.00 0.00 69 1013.9
20260904031509 82 203 0.0 0.0 0.00 0.00 0.00 69 1013.7
20260904031005 82 211 0.0 0.0 0.00 0.00 0.00 69 1013.5
20260904030500 82 200 0.0 0.0 0.00 0.00 0.00 69 1013.7
20260904025955 82 193 0.0 0.0 0.00 0.00 0.00 69 1013.6
20260904025451 82 198 0.0 0.0 0.00 0.00 0.00 69 1013.7
20260904024951 82 219 0.0 0.0 0.00 0.00 0.00 68 1013.5
20260904024446 82 222 0.0 0.9 0.00 0.00 0.00 68 1013.6
20260904023942 82 210 0.0 0.0 0.00 0.00 0.00 68 1013.3
20260904023438 82 202 0.0 0.0 0.00 0.00 0.00 69 1013.1
20260904022938 83 187 0.0 0.9 0.00 0.00 0.00 68 1013.2
20260904022434 83 198 0.0 0.0 0.00 0.00 0.00 68 1013.0
20260904021931 83 172 0.0 0.9 0.00 0.00 0.00 68 1012.9
20260904021426 83 185 0.0 0.0 0.00 0.00 0.00 68 1012.8
20260904020921 83 198 0.0 0.0 0.00 0.00 0.00 68 1012.7
20260904020417 83 181 0.0 0.0 0.00 0.00 0.00 68 1012.8
20260904015915 83 187 0.0 0.0 0.00 0.00 0.00 68 1012.7
20260904015411 83 192 0.0 0.0 0.00 0.00 0.00 69 1012.6
20260904014909 84 210 0.0 0.0 0.00 0.00 0.00 70 1012.6
20260904014405 84 210 0.0 0.0 0.00 0.00 0.00 71 1012.4
20260904013900 84 203 0.0 0.0 0.00 0.00 0.00 73 1012.4
20260904013356 84 195 0.0 0.0 0.00 0.00 0.00 73 1012.4
20260904012851 84 195 0.0 0.0 0.00 0.00 0.00 72 1012.5
20260904012346 84 198 0.0 0.0 0.00 0.00 0.00 72 1012.4
20260904011845 84 202 0.0 0.0 0.00 0.00 0.00 72 1012.4
20260904011341 85 216 0.9 0.9 0.00 0.00 0.00 71 1012.2
20260904010836 85 203 0.0 0.9 0.00 0.00 0.00 72 1012.1
20260904010332 85 191 0.0 0.9 0.00 0.00 0.00 71 1012.1
20260904005827 85 195 0.9 0.9 0.00 0.00 0.00 70 1012.1
20260904005323 85 185 0.0 0.0 0.00 0.00 0.00 69 1012.0
20260904004817 86 154 0.9 0.9 0.00 0.00 0.00 68 1012.1
20260904004314 86 199 0.0 0.0 0.00 0.00 0.00 67 1012.0
20260904003814 86 99 0.0 0.0 0.00 0.00 0.00 66 1012.1
20260904003310 86 213 0.0 0.0 0.00 0.00 0.00 65 1012.1
20260904002805 86 187 0.0 0.0 0.00 0.00 0.00 64 1012.0
20260904002301 87 240 0.0 0.0 0.00 0.00 0.00 64 1011.9
20260904001800 87 188 0.9 1.7 0.00 0.00 0.00 65 1012.0
20260904001255 87 198 0.0 0.0 0.00 0.00 0.00 65 1011.9
20260904000751 87 203 0.0 0.0 0.00 0.00 0.00 64 1011.9
20260904000248 87 200 0.0 0.0 0.00 0.00 0.00 66 1011.7
20260903235745 87 199 0.0 0.0 0.00 0.00 0.00 66 1011.8
20260903235242 87 196 0.0 0.0 0.00 0.00 0.00 66 1011.7
20260903234741 88 195 0.0 0.0 0.00 0.00 0.00 65 1011.9
20260903234237 88 168 0.9 1.7 0.00 0.00 0.00 65 1011.8
20260903233733 88 163 0.9 1.7 0.00 0.00 0.00 64 1011.9
20260903233229 88 113 0.9 0.9 0.00 0.00 0.00 64 1011.6
20260903232727 88 176 0.0 0.9 0.00 0.00 0.00 64 1011.7
20260903232224 89 212 0.0 0.0 0.00 0.00 0.00 65 1011.5
20260903231723 89 175 0.0 0.0 0.00 0.00 0.00 66 1011.6
20260903231218 89 189 0.0 0.0 0.00 0.00 0.00 65 1011.5
20260903230713 89 228 0.0 0.9 0.00 0.00 0.00 65 1011.5
20260903230208 90 181 1.7 1.7 0.00 0.00 0.00 63 1011.7
20260903225705 90 173 0.0 0.0 0.00 0.00 0.00 63 1011.6
20260903225201 90 192 0.9 0.9 0.00 0.00 0.00 60 1011.4
20260903224657 90 204 0.0 0.9 0.00 0.00 0.00 59 1011.3
20260903224152 91 180 1.7 1.7 0.00 0.00 0.00 59 1011.5
20260903223648 91 203 0.0 0.0 0.00 0.00 0.00 59 1011.3
20260903223146 91 191 0.0 0.0 0.00 0.00 0.00 60 1011.3
20260903222646 91 212 0.0 0.9 0.00 0.00 0.00 60 1011.3